Regional Weather Roundup
Issued by NWS

Home | Current Version | Previous Version | Graphics & Text | Print | Product List | Glossary On
Versions: 1 2 3 4 5 6 7 8 9 10 11 12 13 14 15 16 17 18 19 20 21 22 23 24 25 26 27 28 29 30 31 32 33 34 35 36 37 38 39 40 41 42 43 44 45 46 47 48 49 50
920
ASUS43 KIND 120459
RWRIN

WEATHER ROUNDUP FOR INDIANA
NATIONAL WEATHER SERVICE INDIANAPOLIS IN
1200 AM EST TUE DEC 12 2017

NOTE: "FAIR" INDICATES FEW OR NO CLOUDS BELOW 12,000 FEET WITH NO
SIGNIFICANT WEATHER AND/OR OBSTRUCTIONS TO VISIBILITY.

* - STATION DOES NOT REPORT WEATHER SUCH AS PRECIPITATION OR FOG.

+ - STATION NOT QUALITY CONTROLLED BY THE NATIONAL WEATHER SERVICE.
    USE DATA WITH CAUTION...ESPECIALLY DEWPOINT AND RELATIVE
    HUMIDITY OBSERVATIONS.

INZ001>003-010>013-019-020-120600-
NORTHWEST INDIANA

CITY           SKY/WX    TMP DP  RH WIND       PRES   REMARKS
KNOX *+        CLOUDY    34  32  93 N24G32    29.79R WCI  21
LA PORTE +     CLOUDY    33  29  86 NW20G30   29.81R WCI  21
MICHIGAN CITY+ CLOUDY    32  28  86 NW15G26   29.83R WCI  22
MONTICELLO +   CLOUDY    33  30  88 NW20G26   29.82R WCI  21
RENSSELAER +   CLOUDY    34  28  80 NW16G24   29.85R WCI  23

$$

LMZ046-743>745-120600-
SOUTHERN LAKE MICHIGAN

STATION/POSITION TIME  TEMP    WIND        PRES    WAVE
                       AIR SEA DIR/SP/G            HT
                 (UTC) (F)     (DEG/KT/KT) (MB)    (FT)
BURNS HARBOR     0440   35     340/ 25/ 31 1010.8R
MICHIGAN CITY    0430   34     320/ 36/ 40   N/A

$$

INZ004-005-014>016-021>024-120600-
NORTH CENTRAL INDIANA

CITY           SKY/WX    TMP DP  RH WIND       PRES   REMARKS
GOSHEN         CLOUDY    33  31  92 NW16G24   29.74R FOG     WCI  23
PERU/GRISSOM   LGT RAIN  32  32  98 NW15      29.77R WCI  22
ROCHESTER +    CLOUDY    34  32  93 NW14G22   29.77R FOG     WCI  24
SOUTH BEND     CLOUDY    33  30  88 NW21G37   29.78R WCI  21
WARSAW +       CLOUDY    32  32 100 NW13      29.74R FOG     WCI  22

$$

INZ006>009-017-018-025>027-120600-
NORTHEAST INDIANA

CITY           SKY/WX    TMP DP  RH WIND       PRES   REMARKS
AUBURN +       MOCLDY    32  30  93 NW10G16   29.70R FOG     WCI  24
FORT WAYNE     FLURRIES  32  29  88 NW10      29.71R WCI  24
KENDALLVILLE + CLOUDY    31  30  96 NW10      29.70R FOG     WCI  22

$$

INZ028-029-035-036-043>045-051>053-120600-
WEST CENTRAL INDIANA

CITY           SKY/WX    TMP DP  RH WIND       PRES   REMARKS
CRAWFORDSVL +  CLOUDY    32  29  88 NW24G30   29.83R WCI  19
GREENCASTLE +  CLOUDY    36  27  69 NW8G16    29.83R WCI  29
LAFAYETTE      CLOUDY    34  30  85 NW17G26   29.84R WCI  23
TERRE HAUTE    CLOUDY    36  30  79 NW16G28   29.88R WCI  26

$$

INZ030>032-037>040-046>048-054>057-064-065-120600-
CENTRAL INDIANA

CITY           SKY/WX    TMP DP  RH WIND       PRES   REMARKS
FRANKFORT +    CLOUDY    36  31  82 NW18G24   29.82R WCI  26
GREENWOOD *+   MOCLDY    40  30  68 NW12G21   29.78R WCI  33
INDIANAPOLIS   CLOUDY    36  27  69 NW18G25   29.80R WCI  26
-EAGLE CREEK   CLOUDY    36  27  69 NW20      29.78R WCI  25
KOKOMO +       FLURRIES  33  29  85 NW15      29.78R WCI  23
MT COMFORT *+  MOCLDY    34  30  86 NW16G23   29.76R WCI  23
SHELBYVILLE    PTCLDY    39  26  59 NW16G29   29.76R WCI  30

$$

INZ033-034-041-042-049-050-058-059-120600-
EAST CENTRAL INDIANA

CITY           SKY/WX    TMP DP  RH WIND       PRES   REMARKS
MUNCIE         MOCLDY    35  27  72 NW15      29.72R WCI  25
RICHMOND +     CLEAR     34  28  80 W18       29.69R WCI  23

$$

INZ060-061-067>069-081>083-085>088-120600-
SOUTHWEST INDIANA

CITY           SKY/WX    TMP DP  RH WIND       PRES   REMARKS
EVANSVILLE     CLOUDY    45  33  63 NW13G23   29.91R
HUNTINGBURG +  CLOUDY    44  33  65 W17G23    29.87R

$$

INZ062-063-066-070>080-084-089>092-120600-
SOUTH CENTRAL AND SOUTHEAST INDIANA

CITY           SKY/WX    TMP DP  RH WIND       PRES   REMARKS
BLOOMINGTON    CLOUDY    39  27  62 NW14G30   29.82R WCI  31
MADISON *+     PTCLDY    41  27  56 W12       29.80R
SEYMOUR +      CLOUDY    43  27  52 W22       29.81R

$$





USA.gov is the U.S. government's official web portal to all federal, state and local government web resources and services.